| time (UTC) | temp F | wind direction | speed MPH | gust MPH | rain 1hr in | rain 24hr in | rain mn in | humidity % | barometer mb |
| 20260831122042 | 42 | 230 | 0.0 | 1.0 | 0.00 | 0.00 | 0.00 | 89 | 1004.9 |
| 20260831121558 | 41 | 0 | 0.0 | 0.0 | 0.00 | 0.00 | 0.00 | 86 | 1004.9 |
| 20260831121038 | 42 | 0 | 0.0 | 0.0 | 0.00 | 0.00 | 0.00 | 85 | 1004.8 |
| 20260831120538 | 43 | 0 | 0.0 | 1.0 | 0.00 | 0.00 | 0.00 | 87 | 1004.9 |
| 20260831120109 | 43 | 0 | 0.0 | 2.0 | 0.00 | 0.00 | 0.00 | 87 | 1004.6 |
| 20260831115539 | 43 | 230 | 0.0 | 3.0 | 0.00 | 0.00 | 0.00 | 86 | 1004.7 |
| 20260831115039 | 44 | 230 | 2.0 | 3.0 | 0.00 | 0.00 | 0.00 | 87 | 1004.5 |
| 20260831114602 | 44 | 230 | 1.0 | 2.0 | 0.00 | 0.00 | 0.00 | 86 | 1004.4 |
| 20260831114039 | 44 | 230 | 1.0 | 3.0 | 0.00 | 0.00 | 0.00 | 86 | 1004.4 |
| 20260831113540 | 44 | 232 | 1.0 | 3.0 | 0.00 | 0.00 | 0.00 | 85 | 1004.2 |
| 20260831113101 | 44 | 236 | 2.0 | 4.0 | 0.00 | 0.00 | 0.00 | 84 | 1004.2 |
| 20260831112539 | 45 | 249 | 3.0 | 4.0 | 0.00 | 0.00 | 0.00 | 85 | 1004.1 |
| 20260831112038 | 45 | 250 | 3.0 | 5.0 | 0.00 | 0.00 | 0.00 | 85 | 1004.0 |
| 20260831111556 | 45 | 250 | 4.0 | 5.0 | 0.00 | 0.00 | 0.00 | 85 | 1004.0 |
| 20260831111038 | 45 | 250 | 3.0 | 5.0 | 0.00 | 0.00 | 0.00 | 86 | 1004.0 |
| 20260831110540 | 45 | 242 | 3.0 | 4.0 | 0.00 | 0.00 | 0.00 | 86 | 1004.0 |
| 20260831110049 | 45 | 244 | 2.0 | 3.0 | 0.00 | 0.00 | 0.00 | 86 | 1004.0 |
| 20260831105540 | 45 | 244 | 2.0 | 3.0 | 0.00 | 0.00 | 0.00 | 85 | 1004.0 |
| 20260831105039 | 45 | 244 | 2.0 | 4.0 | 0.00 | 0.00 | 0.00 | 85 | 1003.9 |
| 20260831104606 | 45 | 244 | 2.0 | 4.0 | 0.00 | 0.00 | 0.00 | 85 | 1003.9 |
| 20260831104039 | 45 | 246 | 2.0 | 4.0 | 0.00 | 0.00 | 0.00 | 86 | 1003.9 |
| 20260831103538 | 45 | 220 | 2.0 | 3.0 | 0.00 | 0.00 | 0.00 | 86 | 1003.9 |
| 20260831103056 | 45 | 219 | 2.0 | 3.0 | 0.00 | 0.00 | 0.00 | 85 | 1003.8 |
| 20260831102538 | 46 | 219 | 3.0 | 4.0 | 0.00 | 0.00 | 0.00 | 84 | 1003.7 |
| 20260831102038 | 46 | 219 | 2.0 | 5.0 | 0.00 | 0.00 | 0.00 | 83 | 1003.8 |
| 20260831101603 | 46 | 219 | 3.0 | 5.0 | 0.00 | 0.00 | 0.00 | 82 | 1003.8 |
| 20260831101040 | 47 | 227 | 4.0 | 5.0 | 0.00 | 0.00 | 0.00 | 81 | 1003.7 |
| 20260831100538 | 47 | 227 | 4.0 | 5.0 | 0.00 | 0.00 | 0.00 | 80 | 1003.7 |
| 20260831100052 | 48 | 222 | 4.0 | 6.0 | 0.00 | 0.00 | 0.00 | 79 | 1003.5 |
| 20260831095535 | 49 | 229 | 4.0 | 7.0 | 0.00 | 0.00 | 0.00 | 78 | 1003.3 |
| 20260831095039 | 50 | 229 | 5.0 | 9.0 | 0.00 | 0.00 | 0.00 | 77 | 1003.2 |
| 20260831094558 | 51 | 228 | 6.0 | 9.0 | 0.00 | 0.00 | 0.00 | 75 | 1003.1 |
| 20260831094039 | 51 | 232 | 7.0 | 13.0 | 0.00 | 0.00 | 0.00 | 73 | 1003.0 |
| 20260831093540 | 52 | 238 | 7.0 | 13.0 | 0.00 | 0.00 | 0.00 | 71 | 1003.0 |
| 20260831093059 | 52 | 246 | 9.0 | 13.0 | 0.00 | 0.00 | 0.00 | 69 | 1002.9 |
| 20260831092539 | 52 | 249 | 8.0 | 12.0 | 0.00 | 0.00 | 0.00 | 71 | 1002.8 |
| 20260831092040 | 52 | 249 | 7.0 | 12.0 | 0.00 | 0.00 | 0.00 | 74 | 1002.7 |
| 20260831091553 | 52 | 245 | 8.0 | 12.0 | 0.00 | 0.00 | 0.00 | 75 | 1002.7 |
| 20260831091038 | 52 | 248 | 5.0 | 10.0 | 0.00 | 0.00 | 0.00 | 77 | 1002.7 |
| 20260831090539 | 52 | 258 | 6.0 | 13.0 | 0.00 | 0.00 | 0.00 | 76 | 1002.6 |
| 20260831090057 | 53 | 262 | 7.0 | 16.0 | 0.00 | 0.00 | 0.00 | 75 | 1002.6 |
| 20260831085539 | 52 | 267 | 8.0 | 16.0 | 0.00 | 0.00 | 0.00 | 77 | 1002.3 |
| 20260831085039 | 52 | 243 | 5.0 | 14.0 | 0.00 | 0.00 | 0.00 | 77 | 1002.4 |
| 20260831084557 | 53 | 248 | 6.0 | 14.0 | 0.00 | 0.00 | 0.00 | 77 | 1002.3 |
| 20260831084038 | 53 | 267 | 8.0 | 14.0 | 0.00 | 0.00 | 0.00 | 77 | 1002.3 |
| 20260831083538 | 53 | 294 | 6.0 | 15.0 | 0.00 | 0.00 | 0.00 | 77 | 1002.3 |
| 20260831083057 | 53 | 279 | 7.0 | 17.0 | 0.00 | 0.00 | 0.00 | 75 | 1002.1 |
| 20260831082538 | 53 | 265 | 9.0 | 17.0 | 0.00 | 0.00 | 0.00 | 74 | 1002.1 |
| 20260831082039 | 53 | 232 | 9.0 | 18.0 | 0.00 | 0.00 | 0.00 | 75 | 1001.9 |
| 20260831081604 | 54 | 277 | 10.0 | 18.0 | 0.00 | 0.00 | 0.00 | 73 | 1001.8 |
| 20260831081038 | 53 | 270 | 12.0 | 18.0 | 0.00 | 0.00 | 0.00 | 71 | 1001.6 |
| 20260831080539 | 54 | 276 | 10.0 | 20.0 | 0.00 | 0.00 | 0.00 | 71 | 1001.4 |
| 20260831080058 | 53 | 275 | 12.0 | 20.0 | 0.00 | 0.00 | 0.00 | 69 | 1001.4 |
| 20260831075539 | 54 | 254 | 12.0 | 24.0 | 0.00 | 0.00 | 0.00 | 68 | 1001.2 |
| 20260831075039 | 54 | 244 | 12.0 | 24.0 | 0.00 | 0.00 | 0.00 | 67 | 1001.4 |
| 20260831074559 | 54 | 316 | 13.0 | 24.0 | 0.00 | 0.00 | 0.00 | 71 | 1001.3 |
| 20260831074039 | 53 | 237 | 12.0 | 20.0 | 0.00 | 0.00 | 0.00 | 76 | 1001.3 |
| 20260831073539 | 53 | 257 | 10.0 | 20.0 | 0.00 | 0.00 | 0.00 | 78 | 1000.9 |
| 20260831073055 | 54 | 269 | 11.0 | 20.0 | 0.00 | 0.00 | 0.00 | 78 | 1000.6 |
| 20260831072539 | 53 | 247 | 11.0 | 27.0 | 0.00 | 0.00 | 0.00 | 77 | 1000.4 |
| 20260831072038 | 53 | 267 | 11.0 | 28.0 | 0.00 | 0.00 | 0.00 | 78 | 1000.5 |
| 20260831071551 | 53 | 250 | 12.0 | 28.0 | 0.00 | 0.00 | 0.00 | 81 | 1000.3 |
| 20260831071039 | 53 | 297 | 7.0 | 21.0 | 0.00 | 0.00 | 0.00 | 81 | 1000.3 |
| 20260831070539 | 53 | 267 | 12.0 | 21.0 | 0.00 | 0.00 | 0.00 | 80 | 1000.2 |
| 20260831070109 | 53 | 271 | 12.0 | 25.0 | 0.00 | 0.00 | 0.00 | 80 | 1000.2 |
| 20260831065541 | 53 | 288 | 14.0 | 25.0 | 0.00 | 0.00 | 0.00 | 80 | 1000.1 |
| 20260831065039 | 53 | 252 | 13.0 | 27.0 | 0.00 | 0.00 | 0.00 | 80 | 1000.2 |
| 20260831064552 | 53 | 294 | 16.0 | 27.0 | 0.00 | 0.00 | 0.00 | 80 | 1000.1 |
| 20260831064038 | 53 | 290 | 16.0 | 23.0 | 0.00 | 0.00 | 0.00 | 80 | 1000.1 |
| 20260831063539 | 53 | 273 | 16.0 | 27.0 | 0.00 | 0.00 | 0.00 | 80 | 1000.1 |
| 20260831063051 | 53 | 264 | 18.0 | 28.0 | 0.00 | 0.00 | 0.00 | 80 | 999.8 |
| 20260831062540 | 53 | 300 | 18.0 | 29.0 | 0.00 | 0.00 | 0.00 | 80 | 999.7 |
| 20260831062039 | 53 | 291 | 17.0 | 29.0 | 0.00 | 0.00 | 0.00 | 81 | 999.5 |
| 20260831061607 | 53 | 286 | 18.0 | 30.0 | 0.00 | 0.00 | 0.00 | 81 | 999.7 |
| 20260831061039 | 54 | 286 | 19.0 | 30.0 | 0.00 | 0.00 | 0.00 | 82 | 999.4 |
| 20260831060539 | 54 | 257 | 16.0 | 32.0 | 0.00 | 0.00 | 0.00 | 82 | 999.5 |
| 20260831060110 | 54 | 284 | 18.0 | 32.0 | 0.00 | 0.00 | 0.00 | 82 | 999.5 |
| 20260831055538 | 54 | 319 | 17.0 | 31.0 | 0.00 | 0.00 | 0.00 | 81 | 999.5 |
| 20260831055041 | 54 | 276 | 17.0 | 32.0 | 0.00 | 0.00 | 0.00 | 81 | 999.5 |
| 20260831054555 | 54 | 259 | 16.0 | 32.0 | 0.00 | 0.00 | 0.00 | 80 | 999.5 |
| 20260831054041 | 55 | 294 | 13.0 | 28.0 | 0.00 | 0.00 | 0.00 | 80 | 999.5 |
| 20260831053538 | 55 | 265 | 15.0 | 30.0 | 0.00 | 0.00 | 0.00 | 79 | 999.3 |
| 20260831053141 | 55 | 232 | 14.0 | 30.0 | 0.00 | 0.00 | 0.00 | 78 | 999.3 |
| 20260831052538 | 55 | 289 | 13.0 | 30.0 | 0.00 | 0.00 | 0.00 | 79 | 999.3 |
| 20260831052042 | 55 | 259 | 12.0 | 30.0 | 0.00 | 0.00 | 0.00 | 78 | 999.2 |
| 20260831051547 | 55 | 252 | 14.0 | 28.0 | 0.00 | 0.00 | 0.00 | 79 | 999.1 |
| 20260831051038 | 55 | 256 | 19.0 | 27.0 | 0.00 | 0.00 | 0.00 | 78 | 999.1 |
| 20260831050538 | 55 | 269 | 18.0 | 27.0 | 0.00 | 0.00 | 0.00 | 79 | 999.0 |
| 20260831050108 | 55 | 269 | 16.0 | 26.0 | 0.00 | 0.00 | 0.00 | 79 | 998.9 |
| 20260831045538 | 56 | 302 | 15.0 | 29.0 | 0.00 | 0.00 | 0.00 | 79 | 999.0 |
| 20260831045039 | 56 | 274 | 15.0 | 30.0 | 0.00 | 0.00 | 0.00 | 78 | 999.0 |
| 20260831044602 | 56 | 268 | 19.0 | 31.0 | 0.00 | 0.00 | 0.00 | 77 | 998.9 |
| 20260831044038 | 56 | 261 | 19.0 | 32.0 | 0.00 | 0.00 | 0.00 | 77 | 998.9 |
| 20260831043538 | 56 | 290 | 22.0 | 34.0 | 0.00 | 0.00 | 0.00 | 77 | 999.0 |
| 20260831043059 | 56 | 305 | 21.0 | 35.0 | 0.00 | 0.00 | 0.00 | 77 | 999.0 |
| 20260831042539 | 56 | 280 | 23.0 | 38.0 | 0.00 | 0.00 | 0.00 | 77 | 998.9 |
| 20260831042036 | 56 | 290 | 20.0 | 38.0 | 0.00 | 0.00 | 0.00 | 77 | 999.0 |
| 20260831041610 | 56 | 293 | 21.0 | 34.0 | 0.00 | 0.00 | 0.00 | 77 | 999.1 |
| 20260831041036 | 56 | 301 | 20.0 | 34.0 | 0.00 | 0.00 | 0.00 | 77 | 999.0 |
| 20260831040536 | 56 | 287 | 21.0 | 34.0 | 0.00 | 0.00 | 0.00 | 77 | 999.0 |
| 20260831040058 | 56 | 255 | 18.0 | 36.0 | 0.00 | 0.00 | 0.00 | 76 | 999.2 |
| 20260831035537 | 57 | 291 | 20.0 | 36.0 | 0.00 | 0.00 | 0.00 | 78 | 999.2 |
| 20260831035037 | 57 | 271 | 21.0 | 36.0 | 0.00 | 0.00 | 0.00 | 78 | 999.1 |
| 20260831034559 | 57 | 279 | 17.0 | 34.0 | 0.00 | 0.00 | 0.00 | 77 | 999.1 |
| 20260831034042 | 56 | 288 | 17.0 | 30.0 | 0.00 | 0.00 | 0.00 | 78 | 999.0 |
| 20260831033539 | 56 | 250 | 16.0 | 30.0 | 0.00 | 0.00 | 0.00 | 79 | 999.1 |
| 20260831033110 | 56 | 271 | 15.0 | 30.0 | 0.00 | 0.00 | 0.00 | 79 | 999.0 |
| 20260831032537 | 56 | 261 | 17.0 | 32.0 | 0.00 | 0.00 | 0.00 | 80 | 999.2 |
| 20260831032036 | 56 | 246 | 15.0 | 34.0 | 0.00 | 0.00 | 0.00 | 80 | 999.4 |
| 20260831031555 | 57 | 266 | 15.0 | 34.0 | 0.00 | 0.00 | 0.00 | 79 | 999.4 |
| 20260831031036 | 57 | 276 | 15.0 | 39.0 | 0.00 | 0.00 | 0.00 | 79 | 999.2 |
| 20260831030536 | 57 | 263 | 17.0 | 39.0 | 0.00 | 0.00 | 0.00 | 77 | 999.1 |
| 20260831030103 | 57 | 264 | 18.0 | 39.0 | 0.00 | 0.00 | 0.00 | 78 | 999.1 |
| 20260831025540 | 58 | 248 | 18.0 | 36.0 | 0.00 | 0.00 | 0.00 | 78 | 999.2 |
| 20260831025037 | 58 | 265 | 18.0 | 35.0 | 0.00 | 0.00 | 0.00 | 78 | 999.1 |
| 20260831024559 | 58 | 265 | 17.0 | 31.0 | 0.00 | 0.00 | 0.00 | 77 | 998.9 |
| 20260831024036 | 57 | 299 | 17.0 | 33.0 | 0.00 | 0.00 | 0.00 | 78 | 999.0 |
| 20260831023536 | 58 | 283 | 16.0 | 33.0 | 0.00 | 0.00 | 0.00 | 78 | 998.9 |
| 20260831023103 | 58 | 277 | 18.0 | 34.0 | 0.00 | 0.00 | 0.00 | 78 | 998.9 |
| 20260831022536 | 57 | 268 | 13.0 | 34.0 | 0.00 | 0.00 | 0.00 | 80 | 998.9 |
| 20260831022036 | 58 | 282 | 14.0 | 33.0 | 0.00 | 0.00 | 0.00 | 78 | 999.1 |
| 20260831021553 | 58 | 272 | 17.0 | 33.0 | 0.00 | 0.00 | 0.00 | 77 | 999.1 |
| 20260831021044 | 58 | 246 | 16.0 | 38.0 | 0.00 | 0.00 | 0.00 | 77 | 999.2 |
| 20260831020541 | 58 | 286 | 19.0 | 38.0 | 0.00 | 0.00 | 0.00 | 77 | 999.1 |
| 20260831020106 | 58 | 280 | 19.0 | 38.0 | 0.00 | 0.00 | 0.00 | 76 | 999.1 |
| 20260831015536 | 57 | 269 | 18.0 | 38.0 | 0.00 | 0.00 | 0.00 | 79 | 999.1 |
| 20260831015036 | 57 | 291 | 17.0 | 31.0 | 0.00 | 0.00 | 0.00 | 79 | 999.3 |
| 20260831014547 | 57 | 258 | 15.0 | 38.0 | 0.00 | 0.00 | 0.00 | 79 | 999.4 |
| 20260831014036 | 58 | 302 | 18.0 | 38.0 | 0.00 | 0.00 | 0.00 | 77 | 999.4 |
| 20260831013536 | 58 | 293 | 16.0 | 32.0 | 0.00 | 0.00 | 0.00 | 79 | 999.4 |
| 20260831013059 | 58 | 250 | 16.0 | 37.0 | 0.00 | 0.00 | 0.00 | 78 | 999.7 |
| 20260831012539 | 58 | 256 | 19.0 | 37.0 | 0.00 | 0.00 | 0.00 | 76 | 999.6 |
| 20260831012040 | 58 | 269 | 19.0 | 35.0 | 0.00 | 0.00 | 0.00 | 78 | 999.7 |
| 20260831011550 | 58 | 261 | 16.0 | 37.0 | 0.00 | 0.00 | 0.00 | 80 | 999.6 |
| 20260831011039 | 58 | 289 | 18.0 | 40.0 | 0.00 | 0.00 | 0.00 | 79 | 999.7 |
| 20260831010539 | 58 | 297 | 21.0 | 40.0 | 0.00 | 0.00 | 0.00 | 79 | 999.5 |
| 20260831010049 | 58 | 230 | 16.0 | 30.0 | 0.00 | 0.00 | 0.00 | 78 | 999.6 |
| 20260831005536 | 58 | 306 | 16.0 | 36.0 | 0.00 | 0.00 | 0.00 | 78 | 999.6 |
| 20260831005040 | 57 | 248 | 19.0 | 36.0 | 0.00 | 0.00 | 0.00 | 78 | 999.6 |
| 20260831004600 | 57 | 248 | 16.0 | 35.0 | 0.00 | 0.00 | 0.00 | 78 | 999.6 |
| 20260831004036 | 57 | 294 | 17.0 | 35.0 | 0.00 | 0.00 | 0.00 | 77 | 999.8 |
| 20260831003539 | 58 | 254 | 17.0 | 35.0 | 0.00 | 0.00 | 0.00 | 78 | 1000.0 |
| 20260831003056 | 58 | 279 | 15.0 | 35.0 | 0.00 | 0.00 | 0.00 | 78 | 999.9 |
| 20260831002539 | 58 | 278 | 19.0 | 38.0 | 0.00 | 0.00 | 0.00 | 78 | 999.9 |
| 20260831002039 | 58 | 242 | 15.0 | 38.0 | 0.00 | 0.00 | 0.00 | 78 | 1000.0 |
| 20260831001559 | 57 | 284 | 25.0 | 39.0 | 0.00 | 0.00 | 0.00 | 79 | 999.8 |
| 20260831001039 | 57 | 300 | 16.0 | 39.0 | 0.00 | 0.00 | 0.00 | 78 | 999.8 |
| 20260831000538 | 57 | 307 | 20.0 | 39.0 | 0.00 | 0.00 | 0.00 | 77 | 999.9 |
| 20260831000054 | 58 | 261 | 17.0 | 48.0 | 0.00 | 0.00 | 0.00 | 76 | 999.9 |
| 20260830235540 | 58 | 259 | 28.0 | 48.0 | 0.00 | 0.00 | 0.00 | 75 | 999.8 |
| 20260830235039 | 58 | 263 | 19.0 | 36.0 | 0.00 | 0.00 | 0.00 | 79 | 1000.0 |
| 20260830234549 | 58 | 18 | 20.0 | 40.0 | 0.00 | 0.00 | 0.00 | 78 | 999.9 |
| 20260830234039 | 58 | 259 | 24.0 | 40.0 | 0.00 | 0.00 | 0.00 | 78 | 999.6 |
| 20260830233542 | 58 | 302 | 24.0 | 40.0 | 0.00 | 0.00 | 0.00 | 78 | 999.8 |
| 20260830233047 | 58 | 288 | 14.0 | 33.0 | 0.00 | 0.00 | 0.00 | 79 | 999.9 |
| 20260830232539 | 58 | 314 | 18.0 | 33.0 | 0.00 | 0.00 | 0.00 | 78 | 1000.1 |
| 20260830232038 | 58 | 300 | 19.0 | 35.0 | 0.00 | 0.00 | 0.00 | 77 | 1000.0 |
| 20260830231558 | 58 | 296 | 18.0 | 43.0 | 0.00 | 0.00 | 0.00 | 77 | 1000.0 |
| 20260830231036 | 59 | 254 | 24.0 | 43.0 | 0.00 | 0.00 | 0.00 | 75 | 1000.0 |
| 20260830230536 | 59 | 297 | 15.0 | 34.0 | 0.00 | 0.00 | 0.00 | 78 | 999.8 |
| 20260830230052 | 58 | 290 | 14.0 | 41.0 | 0.00 | 0.00 | 0.00 | 77 | 1000.2 |
| 20260830225540 | 58 | 250 | 19.0 | 41.0 | 0.00 | 0.00 | 0.00 | 77 | 1000.2 |
| 20260830225040 | 58 | 288 | 21.0 | 34.0 | 0.00 | 0.00 | 0.00 | 78 | 1000.3 |
| 20260830224548 | 57 | 267 | 15.0 | 31.0 | 0.00 | 0.00 | 0.00 | 81 | 1000.6 |
| 20260830224040 | 57 | 284 | 14.0 | 29.0 | 0.00 | 0.00 | 0.00 | 81 | 1000.5 |
| 20260830223540 | 57 | 272 | 17.0 | 30.0 | 0.00 | 0.00 | 0.00 | 81 | 1000.6 |
| 20260830223056 | 57 | 254 | 15.0 | 30.0 | 0.00 | 0.00 | 0.00 | 82 | 1000.8 |
| 20260830222539 | 56 | 271 | 18.0 | 30.0 | 0.00 | 0.00 | 0.00 | 82 | 1000.8 |
| 20260830222036 | 56 | 298 | 17.0 | 30.0 | 0.00 | 0.00 | 0.00 | 83 | 1000.8 |
| 20260830221555 | 56 | 292 | 16.0 | 33.0 | 0.00 | 0.00 | 0.00 | 81 | 1000.9 |
| 20260830221040 | 56 | 262 | 15.0 | 33.0 | 0.00 | 0.00 | 0.00 | 80 | 1001.0 |
| 20260830220540 | 56 | 307 | 16.0 | 37.0 | 0.00 | 0.00 | 0.00 | 81 | 1000.8 |
| 20260830220052 | 56 | 247 | 17.0 | 39.0 | 0.00 | 0.00 | 0.00 | 81 | 1000.8 |
| 20260830215539 | 56 | 285 | 20.0 | 39.0 | 0.00 | 0.00 | 0.00 | 81 | 1000.4 |
| 20260830215043 | 56 | 295 | 19.0 | 35.0 | 0.00 | 0.00 | 0.00 | 80 | 1000.1 |
| 20260830214557 | 57 | 251 | 19.0 | 35.0 | 0.00 | 0.00 | 0.00 | 81 | 1000.0 |
| 20260830214041 | 57 | 252 | 16.0 | 34.0 | 0.00 | 0.00 | 0.00 | 83 | 1000.2 |
| 20260830213540 | 57 | 267 | 22.0 | 34.0 | 0.00 | 0.00 | 0.00 | 82 | 1000.2 |
| 20260830213049 | 56 | 266 | 17.0 | 35.0 | 0.00 | 0.00 | 0.00 | 82 | 1000.2 |
| 20260830212540 | 56 | 282 | 20.0 | 36.0 | 0.00 | 0.00 | 0.00 | 81 | 1000.4 |
| 20260830212037 | 56 | 318 | 18.0 | 36.0 | 0.00 | 0.00 | 0.00 | 82 | 1000.2 |
| 20260830211552 | 56 | 236 | 19.0 | 32.0 | 0.00 | 0.00 | 0.00 | 82 | 1000.5 |
| 20260830211040 | 56 | 269 | 19.0 | 33.0 | 0.00 | 0.00 | 0.00 | 84 | 1000.3 |
| 20260830210540 | 55 | 320 | 18.0 | 33.0 | 0.00 | 0.00 | 0.00 | 84 | 1000.0 |
| 20260830205536 | 55 | 273 | 19.0 | 33.0 | 0.00 | 0.00 | 0.00 | 87 | 1000.1 |
| 20260830205042 | 54 | 273 | 21.0 | 41.0 | 0.00 | 0.00 | 0.00 | 87 | 1000.0 |
| 20260830204555 | 55 | 245 | 22.0 | 41.0 | 0.00 | 0.00 | 0.00 | 85 | 999.9 |
| 20260830204039 | 56 | 311 | 20.0 | 32.0 | 0.00 | 0.00 | 0.00 | 85 | 999.8 |
| 20260830203541 | 55 | 262 | 19.0 | 35.0 | 0.00 | 0.00 | 0.00 | 84 | 999.4 |
| 20260830203052 | 55 | 295 | 20.0 | 35.0 | 0.00 | 0.00 | 0.00 | 85 | 999.7 |
| 20260830202541 | 55 | 265 | 22.0 | 37.0 | 0.00 | 0.00 | 0.00 | 87 | 999.9 |
| 20260830202040 | 54 | 250 | 21.0 | 37.0 | 0.00 | 0.00 | 0.00 | 88 | 1000.2 |
| 20260830201607 | 54 | 273 | 16.0 | 28.0 | 0.00 | 0.00 | 0.00 | 89 | 1000.5 |
| 20260830201039 | 55 | 292 | 16.0 | 28.0 | 0.00 | 0.00 | 0.00 | 86 | 1000.6 |
| 20260830200539 | 55 | 278 | 17.0 | 33.0 | 0.00 | 0.00 | 0.00 | 84 | 1000.8 |
| 20260830200100 | 55 | 306 | 17.0 | 33.0 | 0.00 | 0.00 | 0.00 | 83 | 1000.8 |
| 20260830195536 | 55 | 263 | 17.0 | 29.0 | 0.00 | 0.00 | 0.00 | 84 | 1000.7 |
| 20260830195036 | 55 | 268 | 11.0 | 24.0 | 0.00 | 0.00 | 0.00 | 84 | 1001.0 |
| 20260830194601 | 55 | 277 | 13.0 | 29.0 | 0.00 | 0.00 | 0.00 | 83 | 1001.1 |
| 20260830194040 | 55 | 248 | 13.0 | 29.0 | 0.00 | 0.00 | 0.00 | 80 | 1001.2 |
| 20260830193543 | 55 | 239 | 14.0 | 29.0 | 0.00 | 0.00 | 0.00 | 80 | 1001.4 |
| 20260830193049 | 55 | 232 | 12.0 | 24.0 | 0.00 | 0.00 | 0.00 | 81 | 1001.4 |
| 20260830192536 | 55 | 240 | 13.0 | 24.0 | 0.00 | 0.00 | 0.00 | 81 | 1001.3 |
| 20260830192040 | 55 | 284 | 13.0 | 21.0 | 0.00 | 0.00 | 0.00 | 81 | 1001.0 |
| 20260830191601 | 54 | 290 | 11.0 | 23.0 | 0.00 | 0.00 | 0.00 | 82 | 1001.0 |
| 20260830191040 | 54 | 290 | 12.0 | 25.0 | 0.00 | 0.00 | 0.00 | 82 | 1000.9 |
| 20260830190536 | 54 | 288 | 14.0 | 25.0 | 0.00 | 0.00 | 0.00 | 81 | 1000.5 |
| 20260830190112 | 54 | 252 | 15.0 | 25.0 | 0.00 | 0.00 | 0.00 | 81 | 1000.4 |
| 20260830185541 | 54 | 266 | 11.0 | 22.0 | 0.00 | 0.00 | 0.00 | 81 | 1000.5 |
| 20260830185040 | 54 | 275 | 12.0 | 22.0 | 0.00 | 0.00 | 0.00 | 81 | 1000.5 |
| 20260830184559 | 54 | 275 | 13.0 | 26.0 | 0.00 | 0.00 | 0.00 | 80 | 1000.6 |
| 20260830184040 | 54 | 292 | 14.0 | 26.0 | 0.00 | 0.00 | 0.00 | 81 | 1000.3 |
| 20260830183539 | 54 | 272 | 11.0 | 26.0 | 0.00 | 0.00 | 0.00 | 82 | 1000.3 |
| 20260830183049 | 54 | 244 | 15.0 | 26.0 | 0.00 | 0.00 | 0.00 | 81 | 1000.3 |
| 20260830182544 | 54 | 252 | 14.0 | 29.0 | 0.00 | 0.00 | 0.00 | 81 | 1000.2 |
| 20260830182044 | 54 | 298 | 14.0 | 29.0 | 0.00 | 0.00 | 0.00 | 81 | 1000.3 |
| 20260830181559 | 53 | 236 | 12.0 | 24.0 | 0.00 | 0.00 | 0.00 | 82 | 1000.4 |
| 20260830181040 | 53 | 278 | 12.0 | 24.0 | 0.00 | 0.00 | 0.00 | 82 | 1000.3 |
| 20260830180543 | 53 | 242 | 13.0 | 24.0 | 0.00 | 0.00 | 0.00 | 82 | 1000.4 |
| 20260830180105 | 53 | 305 | 14.0 | 26.0 | 0.00 | 0.00 | 0.00 | 82 | 1000.4 |
| 20260830175540 | 53 | 248 | 13.0 | 27.0 | 0.00 | 0.00 | 0.00 | 82 | 1000.6 |
| 20260830175040 | 53 | 240 | 13.0 | 27.0 | 0.00 | 0.00 | 0.00 | 83 | 1000.5 |
| 20260830174554 | 53 | 278 | 12.0 | 22.0 | 0.00 | 0.00 | 0.00 | 83 | 1000.4 |
| 20260830174043 | 53 | 257 | 13.0 | 22.0 | 0.00 | 0.00 | 0.00 | 82 | 1000.5 |
| 20260830173543 | 53 | 254 | 12.0 | 21.0 | 0.00 | 0.00 | 0.00 | 82 | 1000.5 |
| 20260830173117 | 54 | 277 | 12.0 | 23.0 | 0.00 | 0.00 | 0.00 | 82 | 1000.3 |
| 20260830172540 | 53 | 264 | 12.0 | 23.0 | 0.00 | 0.00 | 0.00 | 82 | 1000.2 |
| 20260830172039 | 53 | 263 | 14.0 | 23.0 | 0.00 | 0.00 | 0.00 | 82 | 1000.0 |
| 20260830171607 | 53 | 300 | 10.0 | 25.0 | 0.00 | 0.00 | 0.00 | 82 | 1000.1 |
| 20260830171039 | 53 | 271 | 14.0 | 26.0 | 0.00 | 0.00 | 0.00 | 81 | 999.7 |
| 20260830170540 | 53 | 236 | 12.0 | 27.0 | 0.00 | 0.00 | 0.00 | 81 | 999.4 |
| 20260830170053 | 53 | 294 | 14.0 | 27.0 | 0.00 | 0.00 | 0.00 | 81 | 999.5 |
| 20260830165539 | 53 | 256 | 11.0 | 26.0 | 0.00 | 0.00 | 0.00 | 82 | 999.6 |
| 20260830165039 | 54 | 244 | 9.0 | 23.0 | 0.00 | 0.00 | 0.00 | 81 | 999.6 |
| 20260830164557 | 54 | 263 | 11.0 | 24.0 | 0.00 | 0.00 | 0.00 | 80 | 999.9 |
| 20260830164039 | 54 | 257 | 12.0 | 26.0 | 0.00 | 0.00 | 0.00 | 80 | 1000.1 |
| 20260830163540 | 54 | 295 | 13.0 | 26.0 | 0.00 | 0.00 | 0.00 | 79 | 1000.3 |
| 20260830163053 | 54 | 247 | 13.0 | 23.0 | 0.00 | 0.00 | 0.00 | 79 | 1000.1 |
| 20260830162539 | 54 | 250 | 14.0 | 23.0 | 0.00 | 0.00 | 0.00 | 79 | 1000.1 |
| 20260830162039 | 54 | 233 | 13.0 | 26.0 | 0.00 | 0.00 | 0.00 | 79 | 1000.2 |
| 20260830161602 | 54 | 259 | 14.0 | 27.0 | 0.00 | 0.00 | 0.00 | 78 | 1000.0 |
| 20260830161039 | 54 | 245 | 15.0 | 28.0 | 0.00 | 0.00 | 0.00 | 79 | 1000.1 |
| 20260830160539 | 54 | 241 | 14.0 | 28.0 | 0.00 | 0.00 | 0.00 | 80 | 1000.0 |
| 20260830160107 | 54 | 288 | 10.0 | 21.0 | 0.00 | 0.00 | 0.00 | 81 | 999.8 |
| 20260830155539 | 54 | 280 | 11.0 | 21.0 | 0.00 | 0.00 | 0.00 | 81 | 1000.0 |
| 20260830155043 | 54 | 281 | 12.0 | 24.0 | 0.00 | 0.00 | 0.00 | 80 | 1000.0 |
| 20260830154556 | 53 | 258 | 14.0 | 24.0 | 0.00 | 0.00 | 0.00 | 80 | 1000.1 |
| 20260830154040 | 53 | 254 | 13.0 | 23.0 | 0.00 | 0.00 | 0.00 | 81 | 1000.1 |
| 20260830153539 | 53 | 225 | 12.0 | 28.0 | 0.00 | 0.00 | 0.00 | 82 | 1000.0 |
| 20260830153055 | 53 | 264 | 14.0 | 29.0 | 0.00 | 0.00 | 0.00 | 82 | 999.9 |
| 20260830152539 | 53 | 265 | 12.0 | 29.0 | 0.00 | 0.00 | 0.00 | 83 | 999.9 |
| 20260830152040 | 53 | 292 | 14.0 | 24.0 | 0.00 | 0.00 | 0.00 | 83 | 999.9 |
| 20260830151602 | 53 | 262 | 14.0 | 24.0 | 0.00 | 0.00 | 0.00 | 82 | 999.8 |
| 20260830151040 | 53 | 241 | 14.0 | 24.0 | 0.00 | 0.00 | 0.00 | 82 | 999.7 |
| 20260830150540 | 53 | 248 | 14.0 | 24.0 | 0.00 | 0.00 | 0.00 | 82 | 999.8 |
| 20260830150104 | 53 | 271 | 11.0 | 25.0 | 0.00 | 0.00 | 0.00 | 82 | 999.8 |
| 20260830145539 | 53 | 246 | 13.0 | 25.0 | 0.00 | 0.00 | 0.00 | 83 | 999.8 |
| 20260830145044 | 53 | 252 | 11.0 | 21.0 | 0.00 | 0.00 | 0.00 | 83 | 999.7 |
| 20260830144600 | 53 | 264 | 11.0 | 21.0 | 0.00 | 0.00 | 0.00 | 84 | 999.6 |
| 20260830144040 | 53 | 295 | 12.0 | 21.0 | 0.00 | 0.00 | 0.00 | 83 | 999.6 |
| 20260830143540 | 53 | 245 | 12.0 | 20.0 | 0.00 | 0.00 | 0.00 | 84 | 999.6 |
| 20260830143051 | 53 | 246 | 10.0 | 18.0 | 0.00 | 0.00 | 0.00 | 84 | 999.9 |
| 20260830142542 | 53 | 249 | 10.0 | 19.0 | 0.00 | 0.00 | 0.00 | 85 | 999.8 |
| 20260830142039 | 53 | 247 | 10.0 | 19.0 | 0.00 | 0.00 | 0.00 | 84 | 1000.0 |
| 20260830141558 | 53 | 344 | 11.0 | 19.0 | 0.00 | 0.00 | 0.00 | 85 | 1000.1 |
| 20260830141039 | 53 | 323 | 10.0 | 19.0 | 0.00 | 0.00 | 0.00 | 84 | 1000.1 |
| 20260830140538 | 53 | 248 | 9.0 | 21.0 | 0.00 | 0.00 | 0.00 | 84 | 1000.2 |
| 20260830140106 | 53 | 296 | 12.0 | 21.0 | 0.00 | 0.00 | 0.00 | 84 | 1000.2 |
| 20260830135538 | 53 | 247 | 10.0 | 21.0 | 0.00 | 0.00 | 0.00 | 84 | 1000.2 |
| 20260830135038 | 53 | 294 | 13.0 | 21.0 | 0.00 | 0.00 | 0.00 | 84 | 1000.2 |
| 20260830134559 | 53 | 285 | 10.0 | 20.0 | 0.00 | 0.00 | 0.00 | 85 | 1000.2 |
| 20260830134037 | 53 | 247 | 12.0 | 19.0 | 0.00 | 0.00 | 0.00 | 85 | 1000.2 |
| 20260830133539 | 53 | 242 | 9.0 | 19.0 | 0.00 | 0.00 | 0.00 | 85 | 1000.2 |
| 20260830133051 | 52 | 293 | 9.0 | 16.0 | 0.00 | 0.00 | 0.00 | 85 | 1000.2 |
| 20260830132538 | 52 | 241 | 7.0 | 13.0 | 0.00 | 0.00 | 0.00 | 87 | 1000.3 |
| 20260830132038 | 52 | 267 | 6.0 | 12.0 | 0.00 | 0.00 | 0.00 | 88 | 1000.2 |
| 20260830131602 | 52 | 240 | 6.0 | 12.0 | 0.00 | 0.00 | 0.00 | 88 | 1000.3 |
| 20260830131039 | 52 | 248 | 5.0 | 11.0 | 0.00 | 0.00 | 0.00 | 87 | 1000.3 |
| 20260830130539 | 52 | 253 | 5.0 | 12.0 | 0.00 | 0.00 | 0.00 | 86 | 1000.3 |
| 20260830125538 | 52 | 263 | 8.0 | 14.0 | 0.00 | 0.00 | 0.00 | 85 | 1000.3 |
| 20260830125038 | 53 | 242 | 7.0 | 14.0 | 0.00 | 0.00 | 0.00 | 85 | 1000.3 |
| 20260830124553 | 53 | 266 | 8.0 | 14.0 | 0.00 | 0.00 | 0.00 | 85 | 1000.2 |
| 20260830124038 | 53 | 279 | 8.0 | 16.0 | 0.00 | 0.00 | 0.00 | 84 | 1000.3 |
| 20260830123539 | 53 | 257 | 8.0 | 16.0 | 0.00 | 0.00 | 0.00 | 84 | 1000.4 |
| 20260830123049 | 53 | 304 | 8.0 | 15.0 | 0.00 | 0.00 | 0.00 | 83 | 1000.3 |
| 20260830122540 | 53 | 311 | 9.0 | 17.0 | 0.00 | 0.00 | 0.00 | 83 | 1000.3 |